Wind_Speed
22 22 22 22 22 21 19 17 14 12 11 10 9 8 7 6 5 4 4 4 4 4 4 5 5 5 5 6 7 8 9 10 10 10 11 11 11 11 12 11 11 11 12 12 12 12 13 13 14 14 14 14 14 14 14 14 14 14 14 15 15 15 15 15 15 15 14 14 14 14 14 15 16 16 16 16 16 16 16 16 17 17 18 18 18 18
22 22 21 21 19 18 16 13 12 10 9 8 7 6 5 4 4 4 4 4 4 5 5 6 6 6 6 6 7 9 10 10 11 11 11 12 12 12 13 13 13 13 13 13 13 13 14 14 14 14 15 15 15 15 15 15 15 15 15 15 15 15 15 16 16 15 15 15 15 15 15 16 16 16 16 17 17 17 17 17 17 18 19 18 18 19
22 21 19 18 16 14 12 10 10 9 8 7 6 5 4 4 4 4 4 5 5 6 7 7 8 9 8 8 9 10 10 11 11 12 12 13 13 13 14 14 14 14 14 14 14 14 14 15 15 15 15 15 15 15 15 15 15 15 15 16 16 16 16 16 16 16 16 16 16 16 16 16 16 16 16 17 17 17 17 17 17 18 18 19 19 18
20 18 15 13 12 11 9 9 8 8 7 7 6 5 5 4 4 5 5 6 6 7 8 9 10 10 10 10 11 11 12 12 12 13 13 14 14 14 15 15 15 15 15 15 15 15 15 15 15 16 16 16 16 16 16 16 16 16 16 16 16 16 16 16 16 16 16 16 16 16 16 17 17 17 17 17 17 17 17 17 17 17 18 18 18 18
18 15 12 10 9 9 9 8 7 7 7 7 6 5 5 5 6 6 7 8 8 9 10 11 12 12 12 12 12 13 13 13 14 14 14 15 15 15 15 15 15 15 15 15 15 15 15 15 15 16 16 16 16 16 16 16 16 16 16 16 16 16 16 16 16 16 16 16 16 16 17 17 18 18 18 18 18 17 17 17 18 18 18 18 18 18
15 12 10 9 8 8 8 8 7 7 7 7 7 6 6 7 7 8 8 9 10 10 11 12 13 13 13 13 13 14 14 14 14 15 15 15 15 15 15 15 15 15 14 15 15 15 15 15 15 15 15 16 16 16 16 16 16 16 15 15 15 15 15 16 16 16 16 16 16 16 16 17 18 18 19 19 19 18 18 18 18 18 18 18 18 18
13 11 10 9 9 9 8 8 8 8 7 7 8 8 8 9 9 9 10 10 11 12 13 14 15 15 15 14 14 13 14 14 14 14 14 14 14 13 13 13 13 13 13 14 14 14 14 14 15 15 15 16 16 16 16 16 16 15 15 15 15 15 15 15 15 15 15 15 15 16 16 16 17 18 18 19 19 19 18 18 18 18 17 17 17 17
11 10 10 9 9 8 8 8 8 8 8 9 9 10 10 11 11 11 11 12 12 13 13 14 15 15 14 13 12 12 12 13 13 13 13 13 12 12 12 12 12 13 13 13 13 13 14 14 15 15 15 16 16 16 16 16 16 15 15 15 15 15 15 15 15 15 15 16 16 16 16 16 16 17 18 18 18 18 18 18 18 18 17 17 17 17
11 11 10 9 9 8 8 8 9 9 9 9 10 10 11 12 13 14 13 13 13 13 12 12 13 13 13 12 11 11 11 12 12 13 13 12 12 12 12 12 12 12 12 13 13 13 14 14 15 15 15 16 16 16 16 16 16 16 15 15 15 15 15 16 16 16 16 16 16 16 16 16 17 17 17 17 17 17 18 18 18 17 17 17 17 17
11 11 10 10 10 9 8 8 9 10 10 10 11 11 12 12 13 14 15 14 13 12 11 11 11 11 12 12 11 11 11 11 12 12 12 12 12 12 12 12 12 12 12 12 13 13 13 14 14 14 15 15 15 16 16 16 16 15 15 15 15 15 16 16 16 17 17 17 17 17 17 17 17 17 17 17 17 17 17 17 17 17 18 18 18 18
11 11 11 10 11 11 10 9 10 11 11 11 12 13 13 12 12 12 13 14 13 12 10 10 10 10 11 12 12 12 11 11 11 12 12 12 12 12 12 12 12 12 12 12 12 12 13 13 13 14 14 14 14 15 15 15 15 15 15 15 15 15 16 16 16 17 17 17 17 17 17 17 17 18 18 18 18 18 18 18 18 18 18 18 18 18
11 11 11 11 11 11 11 11 11 12 12 12 12 12 11 11 10 10 11 12 14 13 12 11 11 11 11 11 12 12 12 11 11 11 11 11 11 11 12 11 11 11 11 11 11 11 12 12 12 13 13 13 13 13 14 14 14 14 14 14 15 15 16 16 16 17 17 17 17 17 17 17 18 18 18 18 18 18 18 18 18 18 18 18 18 18
11 12 12 12 12 12 12 12 11 12 12 12 12 11 9 9 9 10 11 12 13 14 13 12 11 11 12 11 11 11 11 10 10 10 10 10 10 11 11 11 10 9 9 9 9 10 11 11 11 11 12 12 12 12 12 13 13 13 14 14 14 15 15 15 16 16 16 16 17 17 17 17 18 18 18 18 19 19 19 19 19 19 19 18 18 17
12 12 12 12 12 12 12 12 11 11 12 12 11 10 9 9 10 11 11 12 13 14 13 12 11 11 12 11 11 10 10 9 8 8 8 9 10 11 11 11 10 9 8 8 9 9 10 10 10 11 11 11 11 11 11 11 12 12 13 13 14 14 14 14 15 15 16 16 16 17 17 17 18 18 18 19 19 19 19 19 19 19 19 18 17 17
12 12 12 12 12 11 11 11 11 11 11 11 11 11 11 11 11 11 11 12 13 13 13 12 11 11 11 11 10 10 9 9 8 8 8 8 9 10 11 11 10 9 9 9 9 10 10 10 10 10 10 10 10 10 10 10 11 11 11 12 12 13 13 13 14 14 14 15 15 16 16 17 17 17 18 18 18 18 19 19 19 18 18 17 17 16
12 11 11 12 11 11 11 11 11 11 11 10 11 11 11 12 12 11 11 12 12 12 12 11 10 10 10 11 11 10 10 10 10 9 8 8 9 10 11 11 11 10 9 9 9 10 10 10 10 10 10 10 9 9 9 9 9 9 10 10 11 11 11 12 12 12 13 13 14 14 15 15 16 16 16 16 17 17 17 17 17 17 16 16 15 15
11 10 10 11 11 11 11 11 11 11 11 11 11 11 11 12 12 12 11 11 12 12 11 11 10 8 8 10 10 11 11 11 11 10 9 8 8 10 11 11 11 10 9 9 9 10 10 10 10 10 9 9 9 9 8 8 8 8 9 9 10 10 10 10 11 11 11 12 12 13 13 13 13 14 14 14 15 15 15 15 15 15 14 14 14 13
10 10 10 10 11 11 12 11 11 11 12 12 12 11 11 11 11 11 11 11 11 11 11 10 10 8 8 9 10 11 11 11 11 11 9 8 8 9 10 11 10 10 9 9 9 10 10 10 10 9 9 9 9 8 8 8 8 8 8 9 9 9 9 10 10 10 10 10 11 11 11 11 11 11 12 12 12 13 14 14 14 13 13 12 12 11
9 9 10 10 11 12 12 12 11 11 12 12 12 11 11 11 10 10 11 11 11 10 10 10 9 9 8 8 9 11 11 11 11 11 10 8 8 9 10 10 10 10 9 9 9 10 10 10 9 9 9 9 8 8 8 8 8 8 8 8 8 9 9 9 9 9 9 9 10 10 10 10 10 10 10 10 11 11 12 12 12 12 12 11 10 10
9 10 10 11 12 12 13 12 12 11 11 11 11 11 11 11 10 11 11 11 10 10 10 9 9 9 8 7 8 10 11 11 12 12 11 9 8 9 10 10 10 10 9 9 10 10 10 10 9 9 9 9 8 8 8 8 8 8 8 8 8 8 9 9 9 9 9 9 9 9 9 9 9 9 10 10 10 10 11 11 11 12 12 11 11 10
10 10 10 10 11 12 13 12 12 11 10 10 10 10 10 11 11 11 11 11 10 10 10 9 9 9 8 7 7 8 10 11 11 12 12 10 9 9 10 10 10 10 9 9 9 10 10 10 10 9 9 9 9 9 9 9 9 9 9 9 8 8 8 9 9 9 9 9 9 9 9 10 10 10 10 10 10 10 10 10 11 11 12 12 12 11
10 10 9 10 10 11 12 12 11 10 9 9 10 10 10 10 11 11 11 11 10 10 10 9 9 9 9 8 8 8 9 10 10 11 12 10 8 8 10 11 11 10 10 9 9 9 10 10 10 10 9 9 9 9 9 9 9 9 9 9 9 9 8 8 9 9 9 9 9 10 10 10 10 10 10 10 10 10 10 10 11 11 12 12 13 12
9 8 8 8 9 10 11 11 10 9 8 9 9 10 10 11 11 11 11 10 10 10 10 10 10 10 9 9 8 9 9 9 9 11 11 11 9 8 9 10 11 10 10 9 9 9 9 9 10 10 10 9 9 9 9 9 9 9 9 9 9 9 9 9 9 9 9 9 9 10 10 10 11 11 11 11 11 10 10 10 10 11 11 12 12 13
8 7 7 7 7 9 10 10 9 8 7 8 9 10 10 10 11 10 10 10 11 11 11 11 10 9 8 8 8 8 8 8 9 10 11 12 11 9 9 9 10 10 10 9 9 9 9 9 9 10 9 9 9 9 9 9 9 9 9 9 9 9 9 9 9 9 9 9 10 10 10 11 11 11 11 11 11 11 11 11 11 11 11 11 12 13
7 7 7 6 7 8 9 9 8 8 8 8 9 10 10 10 10 10 10 10 10 11 11 11 9 8 7 7 7 7 8 8 8 9 11 12 11 10 8 9 10 10 9 9 8 8 9 9 9 9 9 9 9 8 8 8 9 9 10 10 10 10 10 10 10 9 9 10 10 10 11 11 11 11 12 12 11 11 11 11 11 11 11 11 12 12
8 7 7 7 7 8 9 9 9 9 9 9 9 10 10 10 10 10 9 9 10 11 11 10 9 8 7 7 7 8 8 8 8 9 10 12 12 10 9 9 10 10 10 8 8 8 8 9 9 9 9 9 8 8 7 8 8 9 10 10 11 11 11 11 10 10 10 10 10 11 11 11 11 12 12 12 12 12 12 12 12 12 12 12 12 13
8 8 8 8 8 8 9 9 9 9 9 9 10 10 10 10 10 9 9 9 9 10 11 11 10 9 9 8 7 8 8 9 9 9 10 11 12 11 10 10 11 11 10 9 8 8 8 9 9 9 8 8 7 7 7 8 8 9 10 11 11 11 11 11 11 11 11 11 11 11 11 11 12 12 12 12 12 12 12 12 12 12 12 13 13 13
9 9 9 9 9 9 9 9 9 9 9 10 10 10 10 10 10 9 8 9 9 10 11 11 11 11 11 10 9 8 8 9 10 10 10 11 12 12 11 11 11 12 11 10 8 7 8 9 9 8 7 7 7 7 7 8 9 10 10 11 11 11 11 11 11 11 11 11 11 12 12 12 12 12 12 13 13 13 13 13 13 13 13 13 14 14
9 9 9 9 9 9 9 9 9 9 9 9 10 10 10 10 10 9 9 9 10 10 11 11 11 11 12 12 11 9 8 8 9 9 10 11 13 12 11 12 12 12 12 12 10 8 9 9 8 7 6 6 6 7 8 9 10 11 11 11 11 11 11 11 11 11 12 12 12 12 12 12 12 13 13 13 13 13 13 13 14 14 14 14 15 15
9 9 9 9 9 9 9 9 9 9 9 9 10 10 10 10 10 10 10 10 10 11 11 11 11 11 12 12 13 12 10 8 8 9 10 12 13 13 13 13 13 12 12 13 13 12 10 8 7 6 6 7 8 9 9 10 11 11 12 11 11 11 11 11 11 12 12 12 12 12 12 13 13 13 13 13 13 14 14 14 14 15 15 15 16 16
8 8 8 8 8 8 9 9 9 9 9 9 9 10 10 10 10 10 10 11 11 11 12 12 11 11 12 12 14 14 12 9 8 9 10 12 14 14 13 14 13 12 11 12 14 14 11 9 8 8 9 9 10 10 11 11 12 12 12 12 11 11 11 11 11 12 12 13 13 13 13 13 13 13 13 13 14 14 14 14 15 15 16 16 16 16
8 8 8 8 8 8 8 9 9 9 9 9 9 9 10 10 10 11 11 11 11 12 12 12 12 12 12 12 13 13 12 11 11 11 11 13 14 14 13 13 13 12 11 11 12 13 11 11 11 11 11 11 11 11 11 12 12 12 12 12 11 11 11 12 12 12 13 13 13 14 14 14 13 13 14 14 14 14 14 15 15 16 16 17 17 17
9 8 8 8 8 9 9 9 9 9 9 9 9 10 10 10 11 11 11 12 12 12 13 13 13 13 13 13 13 12 12 12 12 12 12 13 13 13 12 12 12 12 12 11 12 12 13 14 15 14 13 12 12 12 12 13 13 13 12 12 12 12 12 12 12 13 13 13 14 14 14 14 14 14 14 14 14 15 15 15 15 16 16 17 17 17
9 9 9 9 9 9 10 10 10 10 10 10 10 10 11 11 11 11 11 12 12 12 13 13 13 13 13 13 13 12 11 11 13 14 13 13 13 13 13 12 12 12 13 13 13 13 14 15 15 15 15 14 13 13 13 14 14 14 14 13 13 13 12 12 12 12 13 13 13 14 14 14 14 14 14 14 14 15 15 15 16 16 17 17 17 17
10 10 10 10 10 10 11 11 11 11 11 11 11 11 11 11 11 11 11 11 12 12 12 13 13 13 13 14 14 13 11 11 13 14 13 13 13 14 14 13 13 13 14 14 14 14 15 15 15 16 16 16 15 14 14 15 15 16 15 15 14 14 13 12 12 12 12 12 13 13 14 14 14 14 14 14 14 15 15 16 16 16 17 17 17 17
10 10 10 11 11 11 11 11 11 11 11 11 11 11 11 11 11 11 11 11 11 11 12 12 13 13 13 13 14 13 11 12 13 14 14 14 14 14 15 15 14 14 14 15 15 15 16 16 16 16 16 17 17 16 15 15 16 16 16 16 15 14 13 13 12 11 11 12 12 13 13 13 14 14 14 14 14 14 15 15 16 16 17 17 17 18
11 11 11 11 12 12 12 12 11 11 11 11 12 12 12 12 12 12 12 11 11 11 11 11 12 12 13 13 13 12 12 12 13 14 15 14 14 15 16 15 14 14 14 15 15 16 16 17 17 17 17 17 18 19 18 17 17 17 16 16 15 14 13 12 12 11 11 11 11 12 12 13 13 13 13 13 13 14 14 15 15 16 16 17 17 17
11 11 11 12 12 12 12 12 12 11 11 12 12 13 13 13 13 13 13 13 12 12 11 11 11 12 12 13 13 12 12 12 13 14 14 15 15 15 16 15 15 14 14 14 15 16 17 18 18 19 18 18 18 19 19 19 19 18 16 15 14 13 12 11 11 10 10 10 10 11 11 12 13 13 13 13 13 13 13 14 14 15 15 16 16 16
11 12 12 12 13 13 13 13 12 12 12 12 13 13 13 14 14 14 14 14 14 13 12 12 12 12 12 12 13 12 12 12 13 13 14 15 15 15 16 16 15 14 14 14 15 16 17 17 18 19 20 20 20 20 19 19 19 18 17 15 13 12 11 10 10 10 10 10 10 10 10 11 12 12 13 13 13 13 13 13 13 14 14 15 15 15
12 12 12 12 13 13 13 13 13 13 13 13 13 14 14 14 14 15 15 15 15 14 14 13 13 12 12 12 12 12 12 13 13 14 14 15 15 15 16 16 15 15 14 15 15 16 17 17 18 19 19 20 21 21 21 20 19 18 17 16 14 12 10 9 9 9 9 9 9 9 9 10 11 11 12 13 14 14 14 14 14 14 14 14 14 15
12 12 12 13 13 14 14 14 14 13 14 14 14 14 14 14 15 15 15 15 15 15 14 14 13 13 13 12 12 12 12 13 13 14 15 15 15 15 15 16 15 15 15 16 16 16 17 18 18 19 20 20 21 22 21 20 18 17 17 16 14 13 11 10 9 8 8 8 8 8 9 9 10 11 11 12 13 14 15 15 15 15 14 14 14 14
13 13 13 14 14 14 14 15 15 15 15 15 14 14 14 14 15 15 15 15 15 15 14 14 14 13 13 12 12 11 12 12 13 14 14 15 15 15 15 15 15 15 16 16 17 17 17 18 19 19 20 20 21 22 21 20 17 16 15 14 14 13 12 10 9 8 8 7 8 8 8 9 9 10 11 12 13 14 14 15 16 16 15 15 15 15
15 15 15 15 15 15 15 16 16 16 16 16 15 15 15 15 15 16 16 16 16 15 15 15 14 14 14 13 11 11 11 12 13 13 14 14 14 14 15 15 15 15 16 16 17 17 18 18 19 19 20 20 21 21 21 19 17 14 13 13 13 13 11 9 9 8 8 7 7 8 8 8 9 10 10 11 12 13 14 15 16 16 16 16 16 16
16 16 16 15 15 15 16 16 16 16 17 17 17 16 16 16 16 16 16 16 16 16 16 15 15 15 15 14 12 11 10 11 12 12 13 13 13 13 14 14 15 15 16 16 17 17 18 19 19 20 20 21 21 21 20 18 16 14 12 12 12 12 11 10 9 8 8 7 7 7 8 8 9 9 10 11 11 12 13 14 15 16 16 17 17 17
17 17 17 16 16 16 16 16 16 16 17 17 17 17 17 17 17 17 17 17 17 16 16 16 16 16 15 14 13 12 11 11 11 12 12 12 12 12 13 13 14 15 15 16 17 17 18 19 20 20 21 21 21 20 19 18 16 14 12 12 11 11 11 10 10 9 8 8 8 8 8 9 9 10 10 10 11 11 12 13 14 15 16 16 17 17
18 18 17 17 16 16 16 16 16 16 17 17 17 17 17 17 17 17 17 17 17 17 17 17 17 16 16 15 14 13 12 11 11 12 12 12 12 12 12 12 13 14 15 16 17 18 18 19 20 21 21 21 21 20 18 16 15 14 13 12 12 11 11 10 10 9 9 9 9 10 10 10 11 11 11 11 11 11 12 12 13 14 15 16 17 17
18 18 18 17 17 16 16 15 15 16 16 16 16 16 16 16 17 17 17 17 17 17 17 17 17 17 16 16 15 14 13 12 12 12 12 12 12 11 11 12 13 13 14 15 17 18 18 19 20 20 20 20 20 19 17 15 14 13 13 13 13 12 11 10 10 10 10 10 10 11 11 12 13 13 14 14 13 13 12 12 13 13 14 15 16 17
17 18 18 18 17 17 16 16 16 16 16 15 15 15 15 16 16 16 17 17 17 17 17 17 17 17 17 16 15 14 14 13 13 13 13 13 13 13 12 12 13 13 14 15 16 17 18 19 19 19 19 19 18 17 16 14 14 13 13 13 13 13 12 11 10 10 11 11 12 12 13 14 15 15 16 17 16 16 15 14 13 13 13 14 15 15
17 17 17 17 17 17 17 16 16 16 16 16 16 15 15 16 16 16 16 17 17 17 17 18 18 17 17 16 15 15 14 14 14 14 13 13 13 13 13 14 14 14 14 15 16 16 17 18 18 18 18 17 17 17 16 15 14 14 14 14 14 13 12 12 11 12 12 13 13 14 15 15 16 17 18 19 20 19 18 17 16 15 15 15 15 15
16 16 17 17 17 17 17 17 17 17 16 16 16 16 16 16 16 16 16 17 17 17 18 18 18 18 18 17 16 15 15 14 14 14 13 13 13 13 13 14 15 15 16 17 17 18 18 18 18 18 17 16 15 15 15 15 15 15 15 14 14 13 13 13 13 13 14 14 15 15 16 17 18 19 20 21 22 23 22 21 20 19 18 18 17 17
17 16 16 16 17 17 17 17 17 17 17 17 17 17 16 16 16 16 16 17 17 17 17 18 18 18 18 18 17 16 15 15 15 14 14 13 13 13 13 14 14 15 16 17 18 18 19 20 21 20 17 15 14 14 15 15 15 16 16 15 14 14 14 14 15 15 15 15 16 16 17 18 20 21 22 23 24 26 26 25 24 22 21 20 20 19
Wind_Direction
268 272 276 280 282 284 286 288 288 286 283 278 273 270 271 274 278 283 288 292 295 299 301 301 299 299 299 299 297 295 294 293 294 294 294 294 294 294 293 293 291 290 288 287 286 285 285 285 285 285 285 285 286 286 287 286 286 285 284 282 281 280 278 277 275 273 270 267 263 259 256 254 252 250 248 247 248 249 247 242 238 236 237 239 240 242
268 272 276 280 282 284 285 286 284 280 275 269 263 260 262 267 276 285 291 294 297 298 298 295 292 291 292 291 289 287 286 286 287 288 288 289 289 289 289 290 289 289 288 288 287 287 286 286 286 286 286 287 287 287 287 286 285 285 283 282 280 279 277 276 274 273 271 269 265 262 259 258 257 254 251 249 249 249 248 245 242 240 240 241 242 244
268 272 276 280 281 281 281 281 278 272 266 259 255 254 258 266 274 281 290 294 295 294 293 290 289 289 290 289 286 283 282 282 283 283 284 284 285 285 286 287 287 287 287 287 287 286 286 286 286 287 287 287 287 287 286 286 285 284 282 281 279 277 276 275 274 273 271 270 267 264 262 260 260 258 256 253 251 251 250 249 247 245 244 244 244 245
270 273 277 279 279 278 275 272 268 262 255 250 250 254 260 269 275 279 284 288 290 290 288 286 286 287 288 286 283 281 281 281 281 281 281 281 282 283 284 284 285 285 286 286 286 286 286 287 287 288 288 288 288 287 286 285 284 283 281 279 277 275 274 273 272 272 271 270 268 265 262 261 260 259 258 256 254 253 252 251 250 250 249 248 248 247
273 276 277 276 273 271 268 263 258 253 250 249 252 258 266 271 277 280 283 285 286 285 285 284 283 284 284 283 281 281 280 280 280 279 279 280 281 282 282 283 284 284 285 285 286 286 287 288 288 289 289 288 288 287 286 284 283 282 280 278 276 274 272 271 270 270 269 268 267 265 263 261 260 259 259 258 256 255 254 253 252 252 252 252 251 250
274 276 273 269 265 262 260 256 253 251 253 257 261 266 270 274 277 280 282 282 283 283 282 281 281 281 281 281 280 280 280 279 278 278 278 279 280 281 282 283 284 284 285 286 286 287 287 288 288 288 288 288 287 286 285 284 283 281 280 278 276 274 272 271 270 269 268 267 267 265 263 261 260 259 259 259 258 257 255 254 254 254 254 254 254 253
271 270 266 262 258 256 255 254 254 257 261 267 271 274 275 276 277 278 278 279 279 280 280 280 280 280 280 281 280 280 279 278 278 277 278 278 279 280 282 283 284 284 285 286 286 287 288 288 288 288 288 287 287 286 285 284 283 282 281 279 277 275 274 272 271 270 269 268 267 266 265 263 262 261 260 260 259 258 257 256 255 254 254 254 254 253
263 261 258 254 253 254 255 257 260 264 269 274 278 281 281 281 280 279 278 278 278 278 279 279 280 281 283 283 282 280 279 279 279 279 279 279 279 280 281 282 283 284 285 286 287 287 288 288 288 288 287 287 287 286 286 285 284 283 282 280 279 277 275 274 272 271 270 269 268 267 267 266 266 264 263 262 261 260 259 257 256 255 254 253 253 253
253 253 252 249 247 249 256 262 268 272 276 279 282 284 285 286 286 284 282 280 278 278 279 279 282 284 287 287 286 284 283 283 283 284 285 285 285 285 284 284 284 285 286 287 287 287 287 287 287 287 287 287 287 286 286 285 285 284 283 281 280 278 277 275 274 273 271 270 269 269 269 269 269 269 268 267 265 263 260 259 257 256 255 254 254 254
248 249 251 252 251 253 258 265 273 277 279 281 283 284 285 285 286 287 287 283 281 279 280 280 283 286 290 291 291 289 287 287 287 288 290 292 293 292 292 291 290 289 288 287 287 287 286 286 286 285 285 286 286 286 286 285 285 284 283 282 280 278 276 275 274 273 273 272 271 270 270 270 270 271 271 271 270 268 265 263 260 258 257 257 257 257
248 251 255 259 262 264 267 271 274 278 280 282 284 285 285 283 281 281 282 283 283 284 284 283 283 285 288 291 292 291 289 287 287 288 289 291 292 293 293 292 292 291 290 288 287 287 286 285 284 284 284 285 285 285 285 285 285 285 283 281 279 276 274 273 273 273 273 273 273 272 272 271 271 272 272 273 272 272 270 268 266 263 262 260 260 260
253 257 262 267 272 276 278 278 279 279 280 280 280 278 276 277 276 273 271 274 280 285 288 288 288 287 287 288 289 289 288 287 286 287 288 289 289 289 289 288 288 287 287 286 286 285 285 284 284 284 284 285 285 285 285 286 286 284 282 279 276 274 273 272 272 272 272 273 273 273 272 272 272 272 272 273 273 273 272 271 269 268 266 265 263 262
259 264 268 272 276 278 280 280 279 278 277 278 277 275 271 269 271 271 268 270 275 282 288 291 292 291 290 289 288 287 286 285 286 288 290 292 293 292 292 290 289 288 287 287 285 285 285 284 285 285 286 286 286 286 286 286 285 283 280 278 276 274 273 273 272 272 272 272 272 272 272 272 272 272 272 272 272 272 272 271 271 270 269 267 266 264
263 266 269 271 273 275 277 277 275 274 275 280 282 282 277 272 271 271 269 269 274 282 289 290 290 291 291 290 289 287 286 286 287 289 293 296 298 298 298 298 298 299 298 296 293 290 289 289 290 290 290 290 290 289 289 288 286 283 281 280 279 277 276 274 273 272 271 271 271 271 271 271 271 271 271 271 271 270 270 270 270 270 269 268 266 264
264 266 267 268 270 272 274 276 276 277 280 282 284 284 282 278 275 273 272 271 276 282 287 289 290 290 291 292 292 292 291 291 292 294 297 301 301 301 300 301 303 306 306 304 300 297 296 296 297 297 297 296 295 294 293 291 289 287 286 284 283 280 278 276 274 273 271 271 271 271 271 271 272 271 271 271 270 270 269 269 269 268 267 267 265 263
266 267 267 268 269 270 271 275 278 281 282 282 281 280 279 278 279 279 278 277 279 282 286 288 289 289 288 290 292 294 295 295 296 297 299 304 303 300 300 302 304 307 309 308 305 302 302 303 304 304 303 303 302 301 300 298 296 294 292 290 288 285 282 279 277 275 273 272 272 273 273 273 274 273 272 271 270 269 268 268 267 267 266 265 264 262
265 264 264 266 266 267 270 274 277 280 282 281 280 279 280 281 282 283 282 281 282 284 286 288 288 285 281 283 288 292 294 294 295 297 300 307 305 300 300 302 305 308 312 312 310 308 309 310 310 310 310 310 310 311 310 309 306 304 301 297 295 292 289 286 283 280 278 277 276 276 277 277 277 276 275 273 271 269 268 267 266 265 264 263 262 260
261 260 260 260 262 266 270 272 275 278 281 281 282 283 284 284 284 284 283 284 284 285 286 288 288 285 280 277 284 290 291 293 294 297 301 309 309 304 301 303 307 311 315 316 315 313 314 316 316 316 317 318 319 320 319 318 316 313 309 306 303 300 297 294 291 288 286 284 283 282 282 281 281 280 279 277 275 273 271 269 265 262 259 259 259 258
256 256 256 255 260 266 270 272 273 275 278 282 286 289 288 287 286 285 285 286 287 287 287 287 287 286 284 281 284 289 293 294 296 299 303 312 314 309 305 307 310 315 320 321 319 318 319 320 320 321 322 323 324 324 323 322 321 319 316 313 310 307 304 302 299 296 294 292 290 288 287 286 285 285 283 282 280 278 276 273 268 261 255 252 252 253
252 253 253 255 261 266 269 272 275 278 282 287 291 292 293 292 292 291 291 291 290 289 288 288 287 287 286 283 282 285 292 296 298 300 304 314 317 313 309 310 314 318 324 325 323 321 321 321 322 323 324 325 325 324 323 323 322 322 320 319 316 313 310 306 304 301 299 297 296 294 292 290 289 288 287 285 284 282 280 276 271 263 255 247 244 244
253 252 253 258 261 264 267 273 281 286 289 291 292 292 293 294 295 295 294 293 292 291 289 288 288 287 285 284 281 281 287 293 296 299 303 311 317 317 312 313 316 319 325 326 323 321 320 321 321 322 323 325 325 324 323 323 323 323 323 321 319 316 312 308 305 303 300 299 297 295 293 292 291 290 288 287 286 284 282 278 273 267 259 251 245 242
256 256 259 263 266 268 272 281 287 290 292 292 291 292 293 293 293 292 291 291 291 291 291 290 288 287 287 286 285 284 287 291 295 297 301 306 315 321 314 314 316 319 324 326 323 320 319 319 319 320 322 324 325 324 323 323 323 323 323 321 318 315 311 308 304 301 298 296 294 293 291 290 289 289 288 287 286 284 282 279 276 271 265 259 253 249
263 266 268 269 272 276 280 284 288 291 292 291 292 291 289 288 287 287 288 289 290 289 288 286 286 287 288 288 287 286 287 290 293 296 299 304 312 320 315 314 315 318 322 325 323 319 318 317 316 318 320 321 322 322 321 321 321 322 321 320 318 315 311 307 303 299 295 292 290 289 287 287 286 286 286 286 285 284 282 280 277 273 268 264 260 257
269 272 274 273 274 276 279 282 286 287 287 284 283 282 281 282 284 286 289 290 289 287 285 285 285 285 284 284 283 283 285 287 290 295 300 303 310 317 318 315 314 316 321 323 322 318 316 314 313 313 316 318 319 318 318 319 320 321 321 320 318 315 312 308 304 299 294 290 287 285 284 283 283 283 284 283 283 283 281 279 277 274 270 266 263 260
269 271 270 268 268 270 274 279 282 282 280 277 276 276 277 280 283 286 287 286 284 282 281 281 279 276 273 277 281 285 289 291 295 300 303 304 309 316 321 316 313 314 318 321 320 316 313 311 310 310 312 314 314 315 316 318 320 320 320 319 317 316 313 310 305 301 295 291 286 283 281 280 280 280 280 280 280 279 278 277 275 273 270 267 264 261
270 271 270 268 267 269 273 277 279 279 277 276 276 277 278 281 282 283 282 280 277 275 275 277 277 276 278 288 299 304 301 301 302 304 303 303 307 314 321 315 311 311 315 320 319 315 311 309 308 308 310 310 311 313 316 318 319 319 319 317 316 313 311 309 305 301 297 292 287 283 280 278 276 276 276 276 276 275 275 273 272 271 269 267 264 262
274 274 274 274 273 273 275 277 279 280 280 280 279 279 279 280 280 279 279 279 277 277 280 286 290 293 296 303 309 310 306 306 306 306 304 302 304 309 316 314 310 309 311 316 318 315 311 309 307 306 307 307 308 312 315 317 318 317 316 314 312 310 308 305 303 300 296 292 288 284 280 277 275 273 272 271 271 271 271 270 269 268 267 266 264 262
273 273 274 275 275 275 276 277 279 280 281 281 281 280 280 280 281 283 286 285 283 283 287 293 299 304 307 309 309 307 306 307 306 305 304 301 300 304 312 310 309 309 310 312 314 313 311 306 304 302 301 302 306 311 314 316 316 314 313 311 309 307 304 302 299 296 293 290 287 284 280 277 274 272 270 268 267 267 267 266 266 266 265 264 263 262
269 271 272 273 274 275 275 276 277 277 277 277 277 278 279 280 283 286 287 285 286 287 290 295 300 304 307 307 305 304 306 306 303 302 302 297 297 301 307 306 307 309 310 310 311 312 311 303 299 297 297 300 305 311 314 314 313 311 310 309 307 306 304 301 298 294 291 289 286 283 280 277 274 272 269 267 265 264 263 263 262 262 262 261 262 261
265 267 268 268 268 268 268 267 267 267 267 269 271 273 276 279 283 285 287 288 289 290 292 295 298 301 303 304 303 304 308 307 301 297 297 294 295 297 300 302 305 309 311 311 313 315 314 304 298 298 302 306 309 313 315 314 312 310 309 308 308 306 304 301 297 294 291 288 285 282 280 277 274 272 269 267 264 263 261 260 259 259 259 260 260 260
265 266 266 264 261 258 255 253 253 254 257 261 266 271 276 281 284 287 289 291 291 292 293 295 297 299 300 300 300 301 306 305 296 290 290 289 290 293 297 299 302 307 310 310 312 314 315 304 300 304 308 310 311 313 314 313 312 311 310 309 309 308 305 302 298 294 291 288 285 282 280 277 274 271 269 266 264 262 260 258 258 258 258 259 259 259
277 276 274 270 266 262 259 257 256 256 259 263 269 275 280 285 288 290 292 292 293 293 293 294 295 296 295 294 293 295 298 298 291 286 284 284 286 290 294 297 300 303 306 304 304 306 307 299 298 301 304 305 307 310 312 312 311 311 311 311 311 310 307 303 299 295 291 288 286 283 280 278 275 272 269 266 264 262 259 258 257 257 258 258 259 259
285 284 282 280 278 276 276 275 274 274 275 277 280 283 285 288 290 292 293 293 293 292 292 292 292 292 291 289 288 290 292 292 288 284 283 283 284 287 292 295 297 300 301 299 297 296 296 296 297 299 299 301 305 309 312 313 312 313 315 315 315 313 310 306 300 296 292 289 287 284 282 279 276 273 270 267 264 262 260 258 258 257 258 258 259 260
285 285 284 284 284 283 283 283 283 283 284 284 285 285 286 286 287 289 289 290 291 290 289 289 289 288 288 286 285 286 287 283 282 282 284 284 285 287 291 294 296 298 298 297 295 293 292 294 297 300 302 304 308 313 316 316 315 316 318 319 319 317 314 309 303 298 294 290 288 286 284 282 278 275 272 268 265 262 260 259 258 258 258 259 260 260
281 281 281 281 281 281 280 281 281 282 283 283 284 284 283 283 283 283 284 284 285 286 286 285 285 284 284 283 284 285 281 274 275 280 284 284 286 288 290 292 294 295 296 295 295 294 294 294 296 300 303 306 310 315 317 316 316 317 320 322 321 319 316 312 306 301 296 293 290 288 287 285 282 279 275 271 268 265 262 260 259 258 259 259 260 261
281 281 280 280 280 280 280 280 280 282 284 286 287 287 287 286 285 283 282 281 281 281 281 281 281 280 280 280 282 283 280 273 273 277 282 284 286 287 287 289 291 292 292 292 293 294 295 295 297 300 303 307 311 314 315 314 315 317 320 321 321 319 316 312 308 304 300 296 293 291 289 288 286 283 280 276 272 268 265 263 261 260 260 260 260 261
287 286 286 285 285 285 286 285 286 287 290 292 293 294 293 292 291 289 287 285 282 280 279 278 278 278 277 277 278 279 278 274 273 275 280 283 284 284 284 285 286 287 288 289 290 292 294 295 298 300 303 307 310 313 315 314 315 316 318 319 318 317 314 310 307 305 301 298 295 292 291 289 288 287 284 281 277 273 270 267 265 264 263 262 262 262
293 293 293 292 291 292 292 293 294 295 297 297 297 297 296 296 296 295 294 291 288 285 282 279 278 277 277 277 277 277 277 275 273 274 277 279 280 280 281 282 282 283 284 286 288 290 292 294 297 301 304 307 309 311 313 314 315 317 319 318 316 314 311 308 305 303 300 297 294 292 290 289 289 288 287 286 284 281 277 274 271 269 268 266 265 264
298 299 299 298 297 297 297 298 299 299 298 297 296 296 296 296 296 296 296 294 293 290 287 284 281 279 277 277 276 276 275 274 272 272 273 274 276 277 278 279 280 281 282 283 284 286 289 292 295 300 304 306 308 309 310 311 314 316 316 315 314 313 310 307 304 302 299 297 294 291 289 288 287 288 288 289 288 286 284 280 278 275 273 272 269 268
302 302 302 302 301 300 300 300 300 299 297 296 295 294 295 295 295 295 294 294 293 292 290 287 284 281 278 277 276 275 274 272 270 269 269 270 271 273 275 276 279 281 281 281 282 283 286 289 293 297 300 303 305 307 308 310 312 314 314 314 314 314 313 310 307 303 301 298 294 291 289 287 287 286 287 287 287 287 286 285 283 281 279 277 274 272
303 304 304 304 303 302 301 300 299 297 296 295 294 294 294 294 294 293 292 291 291 290 289 287 284 281 278 276 274 272 271 269 268 267 266 267 268 270 273 274 277 279 280 280 281 283 285 287 291 294 297 300 301 303 304 307 310 312 313 313 313 314 314 314 311 308 305 302 297 293 290 287 285 284 284 284 285 286 286 287 287 286 284 281 278 276
304 305 305 305 304 303 302 301 300 298 296 295 294 293 293 293 292 291 290 289 288 287 286 284 282 279 276 273 270 268 266 265 265 264 265 266 267 269 270 272 274 276 278 279 280 282 284 286 289 292 294 297 298 299 300 304 307 310 310 310 310 311 312 314 314 313 312 308 302 297 293 289 286 284 283 283 283 284 285 286 287 287 287 285 283 280
304 305 306 306 305 304 303 302 301 299 298 296 295 295 294 293 292 291 290 289 288 287 286 283 281 278 275 271 267 263 262 260 260 261 262 263 265 266 268 270 272 273 275 277 279 282 284 286 288 290 293 294 295 296 298 301 304 307 307 307 307 308 310 314 316 315 314 310 305 301 297 294 291 289 287 285 284 284 284 285 286 286 287 287 286 283
304 305 305 305 304 304 303 302 300 300 299 298 297 297 296 294 293 292 291 289 288 288 287 285 282 280 277 275 272 269 265 263 262 261 261 261 262 263 265 267 268 270 273 275 278 281 283 285 287 289 291 292 292 293 295 299 302 304 304 304 304 306 309 312 313 313 310 307 304 302 300 298 296 293 290 288 287 285 285 284 285 286 286 286 286 285
305 305 305 304 303 302 301 300 300 299 298 297 297 296 295 294 293 292 291 290 289 288 287 285 284 283 281 280 279 276 272 270 267 265 263 261 260 261 262 264 266 269 272 274 277 280 282 285 287 289 289 289 289 290 293 296 298 300 300 301 301 301 303 305 308 307 305 304 304 305 305 303 301 299 296 293 291 289 287 286 285 285 285 286 286 285
305 305 304 304 302 301 300 299 298 297 296 295 294 293 293 293 292 291 291 289 288 287 286 284 284 283 282 283 282 280 278 275 272 269 267 264 262 260 261 262 265 268 271 274 277 280 282 284 286 287 287 287 287 287 289 292 294 296 298 298 297 297 298 301 303 303 302 303 304 306 307 306 306 305 304 302 298 294 292 289 288 287 286 285 284 284
305 304 304 304 303 302 301 300 298 296 294 293 292 291 291 291 291 290 290 289 287 286 285 284 283 282 282 282 283 282 281 278 275 273 271 269 266 264 261 262 264 267 270 274 277 280 281 283 283 283 283 284 284 285 287 290 292 294 296 296 295 294 294 297 299 300 300 301 302 303 305 306 307 308 308 306 302 298 295 293 291 289 287 285 284 284
305 304 304 304 304 303 302 301 299 297 295 293 292 291 290 290 289 288 288 288 287 285 285 284 284 283 282 282 282 282 281 279 277 276 275 274 274 273 270 268 268 269 272 274 277 279 280 281 281 280 281 282 284 285 288 290 292 293 294 293 292 292 293 295 296 297 297 297 298 299 301 305 308 311 311 308 305 301 298 296 294 292 290 288 287 285
304 304 304 304 303 303 303 302 301 299 297 296 295 293 291 291 290 288 288 287 286 286 285 285 285 284 283 282 282 281 280 279 278 277 276 277 278 280 281 282 282 283 283 284 284 285 284 284 282 281 281 282 284 286 288 290 292 292 291 290 291 292 293 293 294 294 294 294 295 296 299 303 308 312 313 313 311 307 303 300 298 296 295 294 291 288
304 303 303 302 302 302 302 302 301 300 298 298 296 295 293 292 291 290 288 287 287 286 286 286 285 284 283 283 282 281 280 279 278 276 275 276 277 280 284 287 291 293 295 295 296 296 295 293 291 288 286 286 286 287 288 290 290 290 289 289 290 292 293 293 292 292 292 293 294 297 301 306 311 315 316 316 314 311 308 305 302 301 300 299 296 292
305 304 302 302 301 301 301 301 300 299 298 297 296 295 293 292 291 290 289 288 287 286 285 285 284 283 283 282 282 282 280 279 278 277 275 275 274 276 278 282 286 291 294 295 297 298 298 297 295 293 292 291 290 289 287 287 288 288 288 289 290 292 292 292 292 292 292 293 295 299 304 309 313 316 317 314 313 311 310 308 306 305 303 302 299 295
Height
1521 1521 1520 1520 1520 1520 1520 1520 1519 1519 1519 1519 1519 1519 1518 1518 1518 1518 1518 1518 1518 1518 1518 1518 1518 1518 1519 1519 1518 1518 1518 1518 1518 1517 1517 1517 1517 1517 1517 1517 1517 1517 1517 1517 1517 1517 1517 1517 1517 1516 1516 1516 1516 1516 1516 1516 1515 1515 1515 1515 1515 1515 1515 1515 1515 1515 1515 1515 1515 1515 1514 1514 1514 1515 1515 1516 1516 1517 1517 1517 1517 1517 1517 1518 1518 1518
1519 1519 1519 1519 1519 1519 1518 1518 1518 1518 1518 1518 1518 1518 1518 1517 1517 1517 1517 1517 1517 1517 1517 1517 1517 1518 1518 1518 1518 1518 1517 1517 1517 1517 1517 1517 1517 1517 1517 1517 1516 1516 1516 1516 1516 1516 1516 1516 1516 1515 1515 1515 1515 1515 1515 1514 1514 1514 1514 1514 1514 1514 1514 1514 1514 1514 1513 1513 1513 1513 1513 1513 1513 1514 1514 1514 1515 1515 1515 1516 1516 1516 1516 1517 1517 1517
1518 1518 1518 1518 1517 1517 1517 1517 1517 1517 1517 1517 1517 1517 1517 1517 1517 1517 1517 1517 1517 1517 1517 1517 1517 1517 1517 1518 1517 1517 1517 1517 1517 1517 1516 1516 1516 1516 1516 1516 1516 1515 1515 1515 1515 1515 1515 1515 1514 1514 1514 1514 1514 1513 1513 1513 1513 1513 1513 1513 1513 1513 1513 1513 1512 1512 1512 1512 1512 1512 1512 1512 1512 1512 1513 1513 1513 1514 1514 1514 1514 1515 1515 1515 1515 1516
1516 1517 1517 1517 1516 1516 1516 1516 1516 1516 1517 1517 1517 1516 1516 1516 1516 1516 1516 1516 1516 1516 1516 1516 1516 1516 1517 1517 1517 1516 1516 1516 1516 1516 1515 1515 1515 1515 1515 1515 1515 1514 1514 1514 1514 1514 1514 1513 1513 1513 1513 1512 1512 1512 1512 1512 1512 1512 1512 1512 1512 1512 1512 1512 1511 1511 1511 1511 1511 1511 1511 1511 1511 1511 1512 1512 1512 1512 1512 1513 1513 1513 1513 1514 1514 1514
1515 1516 1516 1516 1515 1515 1515 1515 1516 1516 1516 1516 1515 1515 1515 1515 1515 1515 1515 1515 1515 1515 1515 1515 1515 1515 1516 1516 1516 1515 1515 1515 1515 1515 1514 1514 1514 1514 1514 1514 1514 1513 1513 1513 1513 1512 1512 1512 1512 1512 1511 1511 1511 1511 1511 1511 1510 1510 1511 1511 1510 1510 1510 1510 1510 1510 1510 1510 1510 1510 1510 1510 1510 1510 1510 1510 1511 1511 1511 1511 1512 1512 1512 1512 1513 1513
1514 1514 1514 1514 1514 1514 1514 1515 1515 1515 1515 1514 1514 1514 1514 1514 1514 1514 1514 1514 1514 1514 1514 1514 1514 1514 1515 1515 1515 1514 1514 1514 1514 1513 1513 1513 1513 1513 1513 1513 1512 1512 1512 1512 1512 1511 1511 1511 1511 1510 1510 1510 1510 1510 1509 1509 1509 1509 1509 1509 1509 1509 1509 1509 1509 1509 1509 1509 1509 1509 1509 1509 1509 1509 1509 1509 1509 1509 1509 1510 1510 1510 1511 1511 1511 1512
1513 1513 1513 1513 1513 1514 1514 1514 1514 1514 1513 1513 1513 1513 1513 1513 1513 1513 1513 1513 1513 1513 1513 1513 1513 1513 1513 1513 1513 1513 1513 1513 1512 1512 1512 1512 1512 1512 1512 1512 1511 1511 1511 1511 1511 1510 1510 1510 1510 1509 1509 1509 1509 1508 1508 1508 1508 1508 1508 1508 1508 1508 1507 1507 1507 1507 1507 1507 1507 1507 1507 1508 1508 1507 1507 1508 1508 1508 1508 1508 1508 1509 1509 1509 1510 1510
1512 1512 1512 1512 1513 1513 1513 1513 1512 1512 1512 1512 1512 1512 1512 1512 1512 1512 1512 1512 1512 1512 1512 1512 1512 1512 1512 1512 1512 1512 1512 1512 1511 1511 1511 1511 1511 1511 1511 1511 1510 1510 1510 1510 1509 1509 1509 1509 1508 1508 1508 1508 1507 1507 1507 1507 1507 1507 1507 1507 1507 1506 1506 1506 1506 1506 1506 1506 1506 1506 1506 1506 1507 1507 1507 1507 1507 1507 1507 1507 1507 1507 1507 1508 1508 1508
1511 1511 1512 1512 1512 1512 1512 1512 1512 1511 1511 1511 1511 1511 1511 1511 1511 1511 1511 1511 1511 1511 1511 1511 1511 1510 1511 1511 1511 1511 1511 1510 1510 1510 1510 1510 1510 1510 1510 1509 1509 1509 1509 1509 1508 1508 1508 1508 1507 1507 1507 1507 1506 1506 1506 1506 1505 1505 1505 1505 1505 1505 1505 1505 1505 1505 1505 1505 1505 1505 1505 1505 1505 1505 1505 1505 1505 1505 1505 1505 1506 1506 1506 1506 1506 1507
1510 1510 1511 1511 1511 1511 1511 1511 1510 1510 1510 1510 1510 1510 1510 1510 1509 1509 1509 1509 1510 1510 1510 1510 1510 1510 1509 1509 1510 1510 1509 1509 1509 1509 1508 1508 1508 1508 1508 1508 1508 1508 1508 1507 1507 1507 1507 1507 1506 1506 1506 1505 1505 1505 1504 1504 1504 1504 1504 1504 1504 1504 1503 1503 1503 1503 1503 1503 1503 1503 1504 1504 1504 1504 1504 1504 1504 1504 1504 1504 1504 1504 1504 1505 1505 1505
1509 1509 1509 1509 1509 1509 1510 1510 1509 1509 1509 1509 1509 1509 1509 1509 1508 1508 1507 1507 1507 1508 1509 1509 1509 1509 1508 1508 1508 1508 1508 1508 1508 1508 1507 1507 1507 1507 1507 1507 1507 1507 1507 1507 1506 1506 1506 1506 1505 1505 1505 1504 1504 1504 1503 1503 1503 1503 1503 1502 1502 1502 1502 1502 1502 1502 1502 1502 1502 1502 1502 1502 1502 1502 1502 1502 1502 1502 1502 1502 1502 1503 1503 1503 1503 1504
1508 1508 1508 1508 1508 1508 1508 1508 1508 1508 1507 1507 1507 1508 1508 1508 1508 1507 1507 1506 1506 1507 1507 1508 1508 1508 1508 1507 1507 1507 1507 1507 1507 1507 1507 1507 1507 1506 1506 1506 1506 1506 1506 1505 1505 1505 1505 1504 1504 1504 1503 1503 1503 1502 1502 1502 1502 1502 1501 1501 1501 1501 1501 1501 1501 1501 1500 1500 1501 1501 1501 1501 1501 1501 1501 1501 1501 1501 1501 1501 1501 1501 1501 1502 1502 1502
1507 1507 1507 1507 1507 1507 1506 1506 1506 1506 1506 1506 1506 1507 1507 1507 1507 1507 1507 1506 1505 1505 1506 1506 1507 1507 1507 1507 1506 1506 1506 1506 1506 1506 1506 1506 1505 1505 1505 1505 1505 1504 1504 1504 1504 1504 1503 1503 1503 1502 1502 1502 1502 1502 1501 1501 1501 1500 1500 1500 1499 1499 1499 1499 1499 1499 1499 1499 1499 1499 1499 1499 1499 1499 1499 1499 1499 1499 1499 1499 1499 1499 1500 1500 1501 1501
1506 1506 1506 1505 1505 1505 1505 1505 1505 1505 1505 1505 1505 1506 1506 1506 1506 1506 1506 1505 1505 1505 1505 1505 1506 1505 1505 1505 1505 1505 1505 1505 1505 1505 1505 1505 1504 1504 1503 1503 1503 1503 1503 1503 1503 1502 1502 1502 1502 1501 1501 1501 1501 1500 1500 1500 1499 1499 1498 1498 1498 1498 1498 1498 1498 1498 1498 1498 1498 1498 1498 1498 1498 1498 1498 1498 1498 1498 1498 1498 1498 1498 1498 1499 1499 1499
1505 1505 1504 1504 1504 1504 1504 1504 1504 1504 1504 1504 1504 1505 1505 1505 1505 1505 1505 1505 1504 1504 1504 1504 1504 1504 1504 1504 1504 1504 1504 1504 1504 1504 1504 1504 1503 1503 1502 1502 1502 1502 1502 1502 1501 1501 1501 1500 1500 1500 1500 1500 1499 1499 1499 1498 1498 1498 1497 1497 1497 1497 1497 1497 1497 1497 1497 1497 1497 1497 1497 1497 1497 1497 1497 1497 1497 1497 1497 1497 1497 1497 1497 1497 1497 1498
1504 1503 1503 1503 1502 1502 1503 1502 1502 1503 1503 1503 1504 1503 1503 1503 1503 1504 1504 1504 1503 1503 1503 1503 1503 1503 1503 1503 1503 1503 1503 1502 1502 1502 1503 1503 1502 1502 1501 1501 1501 1501 1501 1500 1500 1500 1499 1499 1499 1498 1498 1498 1498 1498 1497 1497 1497 1497 1496 1496 1496 1496 1496 1495 1495 1495 1495 1495 1495 1495 1495 1495 1495 1495 1495 1495 1495 1495 1495 1495 1495 1496 1496 1496 1496 1497
1502 1502 1502 1502 1501 1502 1502 1502 1502 1502 1502 1502 1502 1502 1502 1502 1502 1502 1503 1502 1502 1502 1502 1502 1502 1502 1502 1502 1502 1502 1502 1502 1501 1501 1502 1502 1501 1501 1500 1500 1499 1499 1499 1499 1499 1498 1498 1498 1497 1497 1497 1497 1497 1497 1496 1496 1496 1495 1495 1495 1495 1495 1494 1494 1494 1494 1494 1494 1494 1494 1494 1494 1494 1494 1494 1494 1494 1494 1494 1494 1494 1495 1495 1495 1495 1496
1501 1501 1501 1501 1500 1500 1501 1501 1501 1501 1501 1501 1501 1502 1502 1502 1502 1502 1502 1502 1502 1502 1501 1501 1502 1502 1502 1501 1501 1501 1501 1500 1500 1500 1500 1501 1500 1500 1499 1499 1498 1498 1498 1498 1497 1497 1497 1497 1496 1496 1496 1496 1495 1495 1495 1495 1494 1494 1494 1494 1494 1494 1493 1493 1493 1493 1493 1493 1493 1493 1493 1493 1493 1493 1493 1493 1493 1493 1493 1493 1493 1494 1494 1494 1495 1495
1500 1500 1500 1500 1499 1499 1500 1500 1500 1500 1500 1500 1500 1501 1501 1501 1501 1501 1501 1501 1501 1501 1501 1500 1500 1500 1501 1501 1500 1500 1500 1499 1499 1498 1499 1499 1499 1498 1498 1497 1497 1497 1497 1497 1496 1496 1496 1495 1495 1495 1495 1495 1494 1494 1494 1494 1493 1493 1493 1493 1493 1493 1492 1492 1492 1492 1492 1492 1492 1492 1492 1492 1492 1492 1492 1492 1492 1492 1492 1492 1492 1493 1493 1493 1494 1495
1499 1499 1499 1499 1499 1498 1498 1499 1499 1499 1500 1500 1500 1500 1500 1500 1500 1500 1500 1500 1500 1500 1500 1500 1500 1500 1500 1500 1499 1499 1499 1498 1498 1497 1497 1498 1498 1497 1497 1497 1496 1496 1496 1496 1495 1495 1495 1494 1494 1494 1494 1494 1494 1493 1493 1493 1493 1492 1492 1492 1492 1492 1492 1492 1492 1492 1491 1491 1491 1492 1492 1492 1492 1492 1492 1492 1492 1492 1492 1492 1492 1492 1492 1493 1493 1494
1498 1498 1498 1498 1498 1498 1497 1498 1498 1499 1499 1499 1499 1499 1499 1499 1499 1499 1499 1499 1499 1499 1499 1499 1499 1498 1499 1499 1499 1498 1498 1497 1497 1496 1496 1497 1497 1497 1496 1495 1495 1495 1495 1495 1494 1494 1494 1493 1493 1493 1493 1493 1493 1492 1492 1492 1492 1492 1492 1492 1491 1491 1491 1491 1491 1491 1491 1491 1491 1491 1491 1491 1491 1491 1491 1491 1491 1491 1491 1491 1491 1492 1492 1492 1492 1493
1497 1497 1498 1498 1497 1497 1497 1497 1497 1498 1498 1498 1498 1498 1498 1498 1498 1498 1498 1498 1498 1498 1498 1498 1498 1497 1497 1498 1497 1497 1497 1497 1496 1496 1495 1495 1496 1496 1495 1494 1494 1494 1494 1494 1494 1493 1493 1493 1492 1492 1492 1492 1492 1492 1492 1491 1491 1491 1491 1491 1491 1491 1490 1490 1490 1490 1490 1490 1490 1490 1490 1490 1490 1490 1490 1490 1490 1490 1490 1491 1491 1491 1491 1491 1492 1492
1497 1497 1497 1497 1497 1497 1497 1497 1497 1497 1497 1497 1497 1497 1497 1497 1497 1497 1497 1497 1497 1497 1497 1497 1497 1497 1497 1497 1496 1496 1496 1496 1495 1495 1494 1494 1494 1495 1494 1494 1493 1493 1493 1493 1493 1493 1492 1492 1492 1492 1492 1492 1491 1491 1491 1491 1490 1490 1490 1490 1490 1490 1489 1489 1489 1489 1489 1489 1489 1489 1489 1489 1489 1489 1489 1489 1489 1489 1490 1490 1490 1490 1490 1491 1491 1491
1496 1496 1496 1496 1496 1496 1496 1496 1496 1496 1497 1497 1497 1496 1496 1496 1496 1497 1497 1497 1496 1496 1496 1496 1496 1496 1496 1495 1495 1495 1495 1495 1494 1494 1493 1493 1493 1493 1493 1493 1493 1492 1492 1492 1492 1492 1492 1491 1491 1491 1491 1491 1491 1490 1490 1490 1490 1489 1489 1489 1489 1489 1488 1488 1488 1488 1488 1488 1488 1488 1488 1488 1488 1488 1488 1488 1488 1488 1489 1489 1489 1489 1489 1490 1490 1490
1495 1495 1495 1495 1495 1495 1495 1495 1495 1495 1496 1496 1496 1496 1496 1496 1496 1496 1496 1496 1495 1495 1495 1495 1495 1495 1495 1495 1494 1494 1494 1494 1493 1493 1492 1492 1492 1492 1492 1492 1492 1492 1492 1492 1492 1491 1491 1491 1490 1490 1490 1490 1490 1490 1489 1489 1489 1489 1488 1488 1488 1488 1488 1487 1487 1487 1487 1487 1487 1487 1487 1487 1487 1487 1487 1487 1487 1487 1487 1488 1488 1488 1488 1489 1489 1489
1494 1494 1494 1494 1494 1494 1494 1494 1494 1494 1495 1495 1495 1495 1495 1495 1495 1495 1495 1495 1495 1494 1494 1494 1494 1494 1494 1494 1493 1493 1492 1492 1492 1492 1492 1491 1491 1491 1492 1492 1491 1491 1491 1491 1491 1491 1490 1490 1490 1489 1489 1489 1489 1489 1489 1488 1488 1488 1488 1487 1487 1487 1487 1487 1487 1487 1486 1486 1486 1486 1486 1486 1486 1486 1486 1486 1486 1486 1487 1487 1487 1487 1487 1487 1488 1488
1493 1493 1493 1493 1493 1493 1493 1493 1493 1493 1493 1494 1494 1494 1494 1494 1494 1494 1494 1494 1493 1493 1493 1492 1492 1492 1492 1492 1492 1492 1492 1492 1491 1491 1491 1491 1490 1490 1491 1491 1490 1490 1490 1490 1490 1490 1489 1489 1489 1489 1488 1488 1488 1488 1488 1488 1487 1487 1487 1487 1487 1486 1486 1486 1486 1486 1485 1485 1485 1485 1485 1485 1485 1485 1485 1485 1485 1485 1485 1485 1486 1486 1486 1487 1487 1487
1492 1492 1492 1492 1492 1492 1492 1492 1492 1492 1493 1493 1493 1493 1493 1493 1493 1493 1493 1493 1492 1492 1492 1492 1491 1491 1491 1491 1491 1491 1491 1491 1491 1490 1490 1490 1489 1489 1490 1490 1489 1489 1489 1489 1489 1489 1489 1488 1488 1488 1488 1488 1488 1487 1487 1487 1487 1487 1487 1486 1486 1486 1485 1485 1485 1485 1484 1484 1484 1484 1484 1484 1484 1484 1484 1484 1484 1484 1484 1484 1484 1485 1485 1485 1485 1486
1492 1492 1492 1492 1492 1492 1492 1492 1492 1492 1492 1492 1492 1492 1492 1492 1492 1492 1492 1492 1492 1491 1491 1491 1490 1490 1490 1490 1490 1490 1490 1490 1490 1490 1489 1489 1488 1488 1489 1488 1488 1488 1488 1487 1488 1488 1488 1487 1487 1487 1487 1487 1487 1487 1487 1487 1486 1486 1486 1485 1485 1485 1484 1484 1484 1483 1483 1483 1483 1483 1483 1482 1482 1482 1482 1482 1483 1483 1483 1483 1483 1483 1483 1483 1484 1484
1491 1491 1491 1491 1491 1491 1491 1491 1491 1491 1491 1491 1491 1491 1491 1491 1491 1491 1491 1491 1491 1490 1490 1490 1490 1489 1489 1488 1488 1488 1489 1489 1489 1489 1489 1488 1487 1487 1488 1487 1487 1487 1487 1487 1486 1487 1487 1487 1487 1487 1487 1487 1487 1486 1486 1486 1485 1485 1485 1484 1484 1484 1483 1483 1482 1482 1482 1482 1482 1482 1482 1482 1481 1481 1481 1481 1481 1482 1482 1482 1482 1482 1482 1482 1482 1482
1490 1490 1490 1490 1490 1490 1490 1490 1491 1491 1491 1491 1491 1490 1490 1490 1490 1490 1490 1490 1489 1489 1489 1489 1488 1488 1488 1488 1487 1487 1487 1488 1488 1488 1488 1487 1487 1487 1487 1487 1487 1487 1487 1486 1486 1485 1485 1485 1485 1486 1486 1486 1485 1485 1485 1485 1484 1484 1484 1483 1483 1482 1482 1482 1482 1481 1481 1481 1480 1480 1480 1480 1480 1480 1480 1480 1480 1480 1480 1480 1480 1480 1480 1480 1481 1481
1489 1489 1489 1489 1489 1489 1489 1489 1489 1489 1489 1489 1489 1489 1489 1489 1489 1489 1489 1488 1488 1488 1488 1487 1487 1487 1487 1487 1487 1486 1487 1487 1487 1487 1487 1486 1486 1486 1486 1486 1486 1486 1486 1486 1485 1485 1484 1484 1484 1484 1485 1485 1485 1484 1484 1484 1483 1483 1482 1482 1482 1482 1481 1481 1480 1480 1479 1479 1479 1479 1479 1479 1479 1479 1479 1479 1479 1479 1479 1479 1479 1479 1479 1479 1479 1479
1488 1488 1488 1488 1488 1488 1488 1488 1488 1488 1488 1488 1488 1488 1488 1488 1488 1488 1487 1487 1487 1487 1487 1486 1486 1486 1486 1486 1486 1486 1486 1486 1485 1485 1485 1485 1485 1485 1485 1485 1485 1485 1485 1485 1485 1484 1484 1483 1483 1483 1483 1483 1483 1483 1483 1482 1482 1482 1482 1481 1481 1480 1480 1479 1479 1478 1478 1478 1477 1477 1477 1477 1477 1477 1477 1477 1477 1477 1477 1477 1477 1477 1477 1477 1477 1478
1487 1487 1487 1487 1487 1487 1487 1487 1487 1487 1487 1487 1487 1487 1487 1487 1487 1487 1487 1486 1486 1486 1485 1485 1485 1485 1484 1484 1484 1484 1485 1485 1484 1484 1484 1484 1484 1483 1484 1484 1484 1484 1484 1483 1483 1483 1483 1482 1482 1481 1481 1482 1482 1482 1482 1481 1481 1480 1480 1480 1479 1479 1478 1478 1477 1477 1477 1477 1476 1476 1476 1476 1476 1476 1476 1476 1476 1476 1476 1476 1476 1476 1476 1476 1476 1476
1486 1486 1486 1486 1486 1486 1486 1486 1486 1486 1486 1486 1486 1486 1486 1486 1486 1486 1485 1485 1485 1485 1484 1484 1484 1483 1483 1483 1483 1483 1483 1483 1483 1482 1482 1483 1482 1482 1482 1482 1483 1483 1482 1482 1482 1482 1481 1481 1481 1480 1480 1480 1480 1480 1480 1480 1479 1479 1479 1478 1478 1477 1477 1477 1476 1476 1475 1475 1475 1475 1474 1474 1474 1474 1474 1474 1474 1474 1474 1475 1475 1475 1475 1475 1475 1475
1485 1485 1485 1485 1485 1485 1485 1485 1485 1485 1485 1484 1484 1484 1484 1484 1484 1484 1484 1484 1484 1483 1483 1483 1483 1482 1482 1482 1482 1482 1482 1482 1482 1482 1482 1482 1482 1482 1481 1481 1482 1482 1481 1481 1481 1480 1480 1480 1479 1479 1479 1478 1478 1478 1479 1479 1478 1478 1477 1477 1477 1476 1476 1475 1475 1475 1474 1474 1474 1473 1473 1473 1473 1473 1473 1473 1473 1473 1473 1473 1473 1473 1473 1473 1473 1473
1484 1484 1484 1484 1484 1483 1483 1483 1483 1483 1483 1483 1483 1483 1483 1483 1483 1483 1483 1482 1482 1482 1482 1482 1482 1481 1481 1481 1481 1481 1481 1481 1481 1481 1480 1480 1480 1480 1480 1480 1480 1480 1480 1480 1480 1479 1479 1478 1478 1478 1478 1477 1477 1477 1477 1477 1477 1477 1477 1476 1476 1475 1474 1474 1474 1473 1473 1473 1472 1472 1472 1472 1472 1472 1471 1472 1472 1472 1472 1472 1472 1472 1472 1472 1472 1472
1483 1483 1483 1483 1483 1482 1482 1482 1482 1482 1482 1482 1482 1482 1482 1482 1481 1481 1481 1481 1481 1481 1481 1481 1481 1480 1480 1480 1480 1480 1480 1480 1480 1479 1479 1479 1479 1479 1479 1479 1479 1479 1479 1479 1478 1478 1477 1477 1477 1476 1476 1476 1476 1476 1475 1475 1475 1475 1475 1475 1474 1474 1473 1473 1472 1472 1472 1472 1472 1471 1471 1471 1471 1470 1470 1470 1470 1470 1470 1470 1470 1470 1470 1470 1471 1471
1482 1482 1482 1482 1482 1482 1481 1481 1481 1481 1481 1481 1481 1481 1480 1480 1480 1480 1480 1480 1480 1480 1480 1479 1479 1479 1479 1479 1479 1479 1479 1479 1478 1478 1478 1478 1478 1477 1477 1477 1477 1477 1478 1478 1477 1477 1477 1476 1476 1475 1475 1474 1474 1474 1474 1474 1473 1473 1473 1473 1473 1473 1472 1472 1472 1471 1471 1471 1471 1470 1470 1470 1470 1469 1469 1469 1469 1468 1468 1468 1469 1469 1469 1469 1469 1469
1482 1482 1482 1481 1481 1481 1481 1480 1480 1480 1480 1480 1480 1479 1479 1479 1479 1479 1479 1478 1478 1478 1478 1478 1478 1478 1478 1478 1478 1477 1477 1477 1477 1477 1477 1477 1477 1476 1476 1476 1476 1476 1477 1477 1476 1476 1476 1475 1475 1474 1474 1473 1473 1472 1472 1472 1472 1472 1472 1471 1471 1471 1471 1471 1470 1470 1470 1469 1469 1469 1469 1469 1469 1468 1468 1468 1467 1467 1467 1467 1467 1467 1467 1467 1467 1467
1481 1480 1480 1480 1480 1480 1480 1479 1479 1479 1479 1479 1478 1478 1478 1478 1478 1477 1477 1477 1477 1477 1477 1477 1477 1477 1477 1477 1477 1476 1476 1476 1476 1476 1476 1475 1475 1475 1475 1475 1475 1475 1475 1475 1475 1475 1475 1474 1474 1473 1473 1473 1472 1471 1471 1471 1471 1471 1471 1470 1470 1470 1470 1470 1469 1469 1468 1468 1468 1468 1468 1468 1467 1467 1467 1467 1467 1466 1466 1466 1466 1466 1466 1466 1466 1466
1479 1479 1479 1479 1479 1479 1478 1478 1478 1478 1478 1477 1477 1477 1477 1477 1477 1476 1476 1476 1476 1476 1476 1475 1475 1475 1475 1475 1475 1475 1475 1475 1475 1474 1474 1474 1474 1474 1474 1474 1474 1474 1474 1474 1473 1473 1473 1473 1473 1472 1472 1472 1471 1470 1470 1470 1470 1470 1470 1469 1468 1468 1468 1468 1468 1468 1467 1467 1467 1467 1467 1467 1466 1466 1466 1466 1466 1465 1465 1465 1465 1464 1464 1464 1464 1464
1478 1478 1478 1478 1477 1477 1477 1477 1477 1476 1476 1476 1476 1476 1476 1476 1475 1475 1475 1475 1474 1474 1474 1474 1474 1473 1473 1473 1474 1474 1474 1474 1473 1473 1473 1473 1473 1473 1473 1473 1473 1473 1473 1472 1472 1472 1472 1472 1472 1471 1471 1470 1470 1469 1468 1468 1469 1469 1469 1468 1468 1467 1467 1467 1467 1467 1467 1466 1466 1466 1466 1465 1465 1465 1465 1465 1464 1464 1464 1464 1463 1463 1463 1463 1463 1463
1477 1477 1477 1477 1476 1476 1476 1476 1475 1475 1475 1475 1475 1475 1474 1474 1474 1474 1473 1473 1473 1472 1472 1472 1472 1472 1471 1472 1472 1472 1472 1472 1472 1472 1472 1472 1472 1472 1472 1472 1472 1472 1472 1471 1471 1471 1471 1470 1470 1470 1469 1469 1468 1468 1467 1467 1467 1467 1467 1467 1467 1466 1466 1466 1466 1466 1466 1465 1465 1465 1464 1464 1464 1464 1464 1463 1463 1463 1463 1462 1462 1462 1462 1462 1461 1461
1476 1476 1475 1475 1475 1475 1475 1475 1474 1474 1474 1474 1474 1473 1473 1473 1472 1472 1472 1472 1471 1471 1471 1471 1470 1470 1470 1470 1470 1470 1471 1471 1471 1471 1471 1471 1471 1471 1471 1471 1471 1470 1470 1470 1470 1470 1469 1469 1468 1468 1468 1467 1467 1467 1466 1466 1466 1466 1466 1466 1466 1465 1465 1465 1465 1465 1464 1464 1464 1464 1463 1463 1463 1463 1462 1462 1462 1462 1462 1462 1461 1461 1461 1460 1460 1460
1474 1474 1474 1474 1474 1474 1474 1473 1473 1473 1473 1472 1472 1472 1472 1472 1471 1471 1471 1470 1470 1470 1469 1469 1469 1468 1468 1468 1468 1468 1469 1469 1469 1469 1469 1469 1470 1470 1470 1470 1469 1469 1469 1469 1468 1468 1468 1467 1467 1467 1466 1466 1465 1465 1465 1465 1465 1465 1465 1464 1464 1464 1464 1464 1464 1464 1463 1463 1463 1462 1462 1462 1462 1461 1461 1461 1461 1461 1461 1460 1460 1460 1459 1459 1459 1458
1473 1473 1473 1472 1472 1472 1472 1472 1472 1472 1472 1471 1471 1471 1471 1470 1470 1469 1469 1469 1468 1468 1468 1467 1467 1467 1467 1467 1467 1467 1467 1467 1467 1467 1467 1468 1468 1468 1468 1468 1468 1468 1468 1467 1467 1467 1466 1466 1466 1465 1465 1464 1463 1463 1464 1464 1464 1463 1463 1463 1463 1463 1463 1463 1463 1462 1462 1462 1462 1461 1461 1461 1460 1460 1459 1459 1459 1459 1459 1459 1459 1458 1458 1458 1457 1457
1472 1472 1471 1471 1471 1471 1471 1471 1471 1470 1470 1470 1470 1469 1469 1469 1468 1468 1468 1467 1467 1467 1467 1466 1466 1466 1466 1466 1466 1466 1466 1466 1466 1466 1466 1466 1466 1466 1467 1467 1467 1467 1466 1466 1466 1465 1465 1464 1464 1463 1463 1463 1462 1462 1462 1462 1462 1462 1462 1462 1462 1461 1461 1462 1462 1461 1461 1461 1460 1460 1460 1459 1459 1458 1458 1457 1457 1457 1457 1457 1457 1457 1457 1457 1456 1456
1471 1470 1470 1470 1469 1469 1469 1469 1469 1469 1468 1468 1468 1468 1467 1467 1467 1467 1466 1466 1466 1465 1465 1465 1465 1464 1464 1464 1464 1464 1464 1464 1464 1464 1464 1464 1464 1464 1464 1464 1464 1464 1464 1464 1464 1463 1463 1462 1462 1462 1462 1462 1461 1461 1461 1461 1461 1461 1461 1460 1460 1460 1460 1460 1460 1460 1460 1459 1459 1459 1458 1458 1457 1457 1456 1455 1455 1454 1454 1455 1455 1455 1455 1455 1454 1454
1469 1469 1469 1468 1468 1468 1467 1467 1467 1467 1467 1467 1466 1466 1466 1466 1466 1465 1465 1465 1464 1464 1464 1463 1463 1463 1463 1462 1463 1463 1463 1463 1463 1463 1463 1463 1463 1463 1463 1462 1462 1462 1462 1462 1461 1461 1460 1460 1460 1460 1460 1460 1460 1460 1460 1459 1459 1459 1459 1459 1459 1459 1459 1458 1458 1458 1458 1458 1457 1457 1457 1456 1456 1455 1455 1454 1453 1452 1452 1452 1452 1452 1452 1452 1452 1452
1468 1467 1467 1467 1467 1466 1466 1466 1466 1465 1465 1465 1465 1465 1464 1464 1464 1464 1463 1463 1463 1462 1462 1462 1462 1462 1461 1461 1461 1461 1462 1462 1462 1462 1462 1462 1462 1462 1462 1462 1461 1461 1461 1460 1459 1459 1459 1458 1457 1457 1458 1459 1459 1459 1459 1458 1458 1457 1457 1457 1457 1457 1457 1457 1457 1457 1457 1456 1456 1456 1455 1455 1454 1454 1453 1452 1452 1450 1449 1449 1449 1449 1450 1450 1450 1449